Location: Brede
(50.9167°N, 0.6000°E)
Time: 18:30:40
(UTC+00:00)

Tiros 1 despin weight - Pass Details

Date: 01 December 2020
Orbit: 594 x 641 km, 48.2° (Epoch: 15 January)

Event Time Altitude Azimuth Distance (km) Brightness Sun altitude
Rises 16:46:20 0° 279° (W) 2,945 ? -7.9°
Reaches altitude 10° 16:49:04 10° 265° (W) 2,031 ? -8.3°
Maximum altitude 16:52:41 22° 214° (SW) 1,379 ? -8.8°
Drops below altitude 10° 16:56:16 10° 163° (SSE) 2,011 ? -9.3°
Sets 16:58:58 0° 149° (SSE) 2,909 ? -9.7°
